CZ-4 DEB

Satellite information

Favourite Embed

Satellite Type and Status

DEBRISIN ORBIT

Key statistics

Satellite CZ-4 DEB at a glance.

Uptime

12725

Days in orbit

Revolutions

≈ 14.5

Per day

Orbit

SSO

Sun Synchronous Orbit

Inclination

98.4

Latest

Satellite identification and parameters

Extended collection of information and parameters for CZ-4 DEB.

Object identification

Identified? True

Debris? True

Object name: CZ-4 DEB

International designator: 1990-081CB

Object number (NORAD): 20969

Object ID (CCSDS): 20969

Country: PEOPLES REPUBLIC OF CHINA (PRC)

Current information (Y/N): Y

RCS size: MEDIUM

Orbital parameters

Period: 99.563 minutes

Inclination: 98.4272 deg

SMA: 7115.837 km

Apoapsis: 766.046 km

Periapsis: 709.359 km

RAAN: 192.8665 deg

Eccentricy: 0.0039832

Argument of periapsis: 325.114 deg

Mean anomaly: 161.7568 deg

Mean motion: 14.46317841 rev/day

Mean motion (dot): 0.00002392 rev/day2

B* drag term: 0.00067312 1/REarth

Two-line elements (TLE)

Creation date: July 5, 2025, 5:45 p.m.

Reference frame: TEME

Reference center: EARTH

Epoch: July 5, 2025, 2:39 p.m. UTC

TLE line 0: 0 CZ-4 DEB

TLE line 1: 1 20969U 90081CB 25186.61109111 .00002392 00000-0 67312-3 0 9994

TLE line 2: 2 20969 98.4272 192.8665 0039832 325.1140 161.7568 14.46317841806768

Live tracking on map

Real-time ground track for satellite CZ-4 DEB.

In-orbit conjunctions

There are no conjunctions computed for CZ-4 DEB, at the moment. Check back to stay up to date, as we update our databases every day.

Go to all conjunctions

Associated space launch

Chinese polar orbiting meteorological satellite

CZ-4 DEB was lifted into orbit during the mission ‘Long March 4A | Feng Yun 1B’, on board a Long March 4A space rocket.

The launch took place on Sept. 3, 1990, 12:53 a.m. from Launch Complex 7.

For more information about the launch, click the button.

Launch to space Long March 4A | Feng Yun 1B
Long March 4A | Feng Yun 1B

Agency: N/A

Status: Launch Successful

Launch date: Sept. 3, 1990, 12:53 a.m. UTC

Rocket: Long March 4A

Launch pad: Launch Complex 7

Location: Taiyuan Satellite Launch Center, People's Republic of China

...

Latest news about this satellite

There are no fresh news available about this satellite. Check back as we update our databases every day.


Newsletter sign-up

Weekly statistics, charts and insights to help you stay on top of the space industry.